1505106000.92,1332,14.81,73490.8,5.29,4.27,4.23,0,*44
1505106002.12,1333,14.81,73492.8,5.25,4.23,4.31,0,*4E
1505106003.29,1334,14.81,73470.5,5.23,4.19,4.27,0,*41
1505106004.46,1335,14.81,73458.3,5.25,4.23,4.23,0,*4B
1505106005.63,1336,14.81,73472.3,5.25,4.11,4.19,0,*40
1505106006.8,1337,14.81,73476.8,5.25,4.19,4.11,0,*41
1505106007.96,1338,14.81,73476.3,5.25,4.19,4.19,0,*46
1505106009.13,1339,14.81,73478.8,5.29,4.27,4.27,0,*4B
1505106010.31,1340,14.81,73482.0,5.29,4.33,4.33,0,*45
1505106011.48,1341,14.81,73480.0,5.29,4.27,4.33,0,*41
1505106012.66,1342,14.81,73480.5,5.29,4.37,4.37,0,*47
1505106013.84,1343,14.81,73478.0,5.29,4.37,4.37,0,*46
1505106015.01,1344,14.81,73478.5,5.29,4.23,4.23,0,*41
1505106016.18,1345,14.81,73474.8,5.25,4.11,4.11,0,*4C
1505106017.35,1346,14.81,73470.3,5.25,4.11,4.11,0,*4F
1505106018.58,1347,14.81,73474.5,5.25,4.31,4.31,0,*4E
1505106019.81,1348,14.81,73478.8,5.25,4.31,4.31,0,*41
1505106020.99,1349,14.81,73478.0,5.29,4.37,4.37,0,*4C
1505106022.15,1350,14.81,73484.3,5.29,4.27,4.27,0,*44
1505106023.32,1351,14.81,73492.3,5.29,4.15,4.23,0,*40
1505106024.49,1352,14.81,73490.0,5.25,4.19,4.19,0,*4A
1505106025.67,1353,14.81,73500.5,5.25,4.11,4.07,0,*4C
1505106026.86,1354,14.81,73466.8,5.25,3.97,3.85,0,*4F
1505106028.03,1355,14.81,73458.8,5.25,3.85,3.85,0,*4D
1505106029.25,1356,14.81,73472.8,5.25,3.97,3.97,0,*4E
1505106030.41,1357,14.81,73478.5,5.25,4.19,4.19,0,*4F
1505106031.61,1358,14.81,73468.5,5.23,4.23,4.31,0,*45
1505106032.78,1359,14.88,73476.8,5.25,4.23,4.23,0,*41
1505106033.95,1360,14.81,73480.5,5.23,4.11,4.07,0,*4A
1505106035.13,1361,14.81,73492.8,5.25,4.11,4.07,0,*4D
1505106036.35,1362,14.81,73496.5,5.25,4.01,4.01,0,*49
1505106037.52,1363,14.81,73488.8,5.23,4.15,4.11,0,*4A
1505106038.68,1364,14.81,73480.3,5.23,4.11,4.11,0,*49
1505106039.88,1365,14.81,73488.3,5.25,4.31,4.23,0,*4D
1505106041.08,1366,14.81,73494.5,5.23,4.27,4.31,0,*4C
1505106042.27,1367,14.81,73498.0,5.25,4.37,4.37,0,*4C
1505106043.44,1368,14.81,73500.3,5.23,4.41,4.33,0,*40
1505106044.67,1369,14.81,73502.5,5.25,4.31,4.31,0,*42
1505106045.87,1370,14.81,73496.8,5.25,4.31,4.33,0,*48
1505106047.04,1371,14.81,73484.8,5.29,4.15,4.11,0,*43
1505106048.21,1372,14.81,73486.0,5.29,4.15,4.23,0,*41
1505106049.44,1373,14.81,73480.3,5.25,4.31,4.31,0,*49
1505106050.61,1374,14.81,73486.5,5.25,4.41,4.33,0,*4B
1505106051.82,1375,14.81,73494.3,5.23,4.31,4.37,0,*4F
1505106053.02,1376,14.81,73478.3,5.25,4.33,4.31,0,*4E
1505106054.19,1377,14.81,73468.0,5.23,4.07,4.07,0,*4B
1505106055.36,1378,14.81,73462.8,5.23,4.15,4.15,0,*44
1505106056.55,1379,14.88,73472.0,5.23,4.31,4.27,0,*42
1505106057.78,1380,14.81,73472.5,5.23,4.31,4.31,0,*43
1505106058.98,1381,14.81,73462.3,5.25,4.33,4.31,0,*46
1505106060.15,1382,14.88,73462.0,5.25,4.07,4.11,0,*40
1505106061.32,1383,14.81,73468.5,5.23,4.15,4.15,0,*40
1505106062.49,1384,14.81,73478.0,5.25,4.23,4.19,0,*48
1505106063.71,1385,14.81,73472.8,5.25,3.97,3.97,0,*40
1505106064.91,1386,14.81,73472.0,5.25,4.01,3.89,0,*44
1505106066.08,1387,14.81,73492.5,5.25,4.11,4.19,0,*4A
1505106067.25,1388,14.81,73490.5,5.23,4.15,4.15,0,*4B
1505106068.42,1389,14.81,73452.3,5.23,4.07,4.07,0,*4A
1505106069.59,1390,14.81,73448.0,5.23,4.07,4.07,0,*42
1505106070.79,1391,14.81,73464.5,5.25,3.97,3.89,0,*4A
1505106072.02,1392,14.81,73462.0,5.23,3.75,3.75,0,*40
1505106073.19,1393,14.81,73452.8,5.23,3.85,3.85,0,*41
1505106074.35,1394,14.81,73444.5,5.23,3.93,3.85,0,*41
1505106075.52,1395,14.81,73450.0,5.23,3.85,3.93,0,*40
1505106076.75,1396,14.81,73444.8,5.23,4.05,4.05,0,*44
1505106077.92,1397,14.81,73442.3,5.23,4.27,4.27,0,*45
1505106079.09,1398,14.81,73458.8,5.23,4.15,4.15,0,*4A
1505106080.3,1399,14.81,73466.3,5.23,3.97,3.97,0,*4B
1505106081.51,1400,14.81,73462.5,5.23,3.97,3.97,0,*4C
1505106082.73,1401,14.81,73442.8,5.23,3.97,3.97,0,*4D
1505106083.93,1402,14.88,73456.8,5.21,4.15,4.07,0,*4F
1505106085.17,1403,14.81,73464.8,5.21,4.31,4.31,0,*4D
1505106086.42,1404,14.88,73474.3,5.21,4.31,4.31,0,*4A
1505106087.59,1405,14.88,73482.0,5.23,4.19,4.19,0,*49
1505106088.75,1406,14.88,73474.8,5.23,4.27,4.27,0,*4A
1505106089.92,1407,14.81,73472.5,5.23,4.27,4.27,0,*4B
1505106091.17,1408,14.88,73476.3,5.21,4.31,4.31,0,*46
1505106092.33,1409,14.81,73470.3,5.23,4.19,4.19,0,*45
1505106093.5,1410,14.81,73488.3,5.23,4.15,4.07,0,*4E
1505106094.67,1411,14.88,73494.3,5.23,4.27,4.27,0,*4C
1505106095.89,1412,14.88,73486.3,5.23,4.31,4.31,0,*4F
1505106097.06,1413,14.81,73496.8,5.23,4.19,4.07,0,*41
1505106098.29,1414,14.88,73498.3,5.23,4.05,4.05,0,*49
1505106099.49,1415,14.88,73486.5,5.23,4.07,4.05,0,*4A
1505106100.69,1416,14.81,73490.3,5.25,4.23,4.31,0,*4E
1505106101.86,1417,14.81,73494.5,5.23,4.11,4.23,0,*4B
1505106103.05,1418,14.81,73490.3,5.23,4.31,4.27,0,*42
1505106104.25,1419,14.81,73488.8,5.23,4.31,4.37,0,*42
1505106105.43,1420,14.88,73494.5,5.23,4.37,4.37,0,*4E
1505106106.63,1421,14.81,73490.3,5.23,4.37,4.31,0,*49
1505106107.8,1422,14.88,73500.3,5.25,4.41,4.45,0,*4E
1505106108.98,1423,14.81,73500.0,5.23,4.37,4.41,0,*4C
1505106110.16,1424,14.81,73496.8,5.25,4.41,4.37,0,*4D
1505106111.32,1425,14.88,73498.5,5.23,4.27,4.27,0,*4B
1505106112.52,1426,14.81,73494.3,5.25,4.23,4.31,0,*4D
1505106113.75,1427,14.81,73486.3,5.23,4.31,4.31,0,*49
1505106114.95,1428,14.88,73482.3,5.25,4.31,4.23,0,*43
1505106116.12,1429,14.81,73474.3,5.25,4.11,4.11,0,*41
1505106117.29,1430,14.81,73464.3,5.23,4.15,4.07,0,*4C
1505106118.49,1431,14.81,73460.0,5.23,4.05,4.07,0,*4C
1505106119.67,1432,14.81,73456.8,5.23,4.07,4.07,0,*4D
1505106120.87,1433,14.81,73464.3,5.25,4.31,4.23,0,*49
1505106122.03,1434,14.88,73474.3,5.23,4.27,4.19,0,*46
1505106123.2,1435,14.81,73480.0,5.25,4.19,4.27,0,*41
1505106124.4,1436,14.88,73470.8,5.23,4.27,4.31,0,*4E
1505106125.57,1437,14.81,73450.0,5.25,4.23,4.19,0,*47
1505106126.77,1438,14.81,73448.3,5.23,4.15,4.05,0,*46
1505106127.99,1439,14.81,73460.0,5.23,4.05,3.97,0,*4A
1505106129.21,1440,14.81,73460.8,5.23,4.05,4.05,0,*48
1505106130.43,1441,14.81,73460.5,5.23,4.05,4.05,0,*49
1505106131.61,1442,14.81,73468.8,5.23,4.07,4.07,0,*4A
1505106132.77,1443,14.81,73476.5,5.23,4.19,4.19,0,*4B
1505106133.94,1444,14.81,73474.8,5.23,4.27,4.19,0,*41
1505106135.11,1445,14.88,73460.5,5.23,4.15,4.07,0,*4E
1505106136.31,1446,14.88,73470.3,5.21,4.15,4.07,0,*4F
1505106137.5,1447,14.88,73482.3,5.21,4.19,4.15,0,*41
1505106138.69,1448,14.81,73476.3,5.21,4.37,4.27,0,*43
1505106139.88,1449,14.81,73478.3,5.21,4.37,4.27,0,*42
1505106141.11,1450,14.88,73468.0,5.23,4.31,4.31,0,*49
1505106142.27,1451,14.88,73484.5,5.23,4.27,4.27,0,*48
1505106143.45,1452,14.88,73496.5,5.23,4.37,4.41,0,*4A
1505106144.62,1453,14.81,73488.0,5.23,4.49,4.41,0,*42
1505106145.8,1454,14.81,73490.5,5.25,4.33,4.33,0,*4B
1505106147.0,1455,14.88,73486.3,5.23,4.31,4.37,0,*4A
1505106148.18,1456,14.81,73480.0,5.25,4.33,4.41,0,*4C
1505106149.36,1457,14.88,73494.5,5.23,4.37,4.37,0,*4E
1505106150.56,1458,14.88,73490.5,5.25,4.31,4.33,0,*45
1505106151.73,1459,14.88,73500.8,5.25,4.23,4.23,0,*46
1505106152.9,1460,14.88,73514.3,5.23,4.37,4.27,0,*4B
1505106154.07,1461,14.88,73518.5,5.23,4.19,4.19,0,*4B
1505106155.26,1462,14.88,73532.5,5.25,4.23,4.05,0,*4A
1505106156.43,1463,14.88,73520.0,5.25,4.19,4.19,0,*4F
1505106157.62,1464,14.81,73518.5,5.23,4.31,4.27,0,*49
1505106158.85,1465,14.81,73512.5,5.23,4.31,4.31,0,*4F
1505106160.02,1466,14.88,73520.8,5.25,4.41,4.33,0,*4F
1505106161.2,1467,14.88,73524.0,5.25,4.41,4.45,0,*4F
1505106162.37,1468,14.81,73516.8,5.25,4.45,4.53,0,*43
1505106163.55,1469,14.81,73502.3,5.23,4.37,4.37,0,*43
1505106164.74,1470,14.88,73492.0,5.23,4.31,4.27,0,*4C
1505106165.96,1471,14.81,73490.3,5.23,4.31,4.31,0,*4A
1505106167.14,1472,14.88,73516.8,5.23,4.37,4.37,0,*49
1505106168.34,1473,14.88,73512.0,5.23,4.41,4.31,0,*4F
1505106169.51,1474,14.81,73506.3,5.25,4.41,4.45,0,*4D
1505106170.69,1475,14.88,73518.8,5.25,4.41,4.41,0,*48
1505106171.89,1476,14.81,73512.0,5.25,4.23,4.31,0,*48
1505106173.06,1477,14.88,73518.0,5.25,4.23,4.23,0,*4A
1505106174.23,1478,14.88,73524.5,5.25,4.23,4.23,0,*45
1505106175.43,1479,14.88,73500.3,5.25,4.31,4.23,0,*47
1505106176.66,1480,14.88,73476.8,5.25,4.31,4.31,0,*42
1505106177.83,1481,14.88,73468.5,5.23,4.07,4.07,0,*45
1505106179.0,1482,14.81,73498.0,5.23,4.15,4.15,0,*46
1505106180.2,1483,14.88,73506.8,5.25,4.33,4.31,0,*43
1505106181.4,1484,14.88,73492.3,5.25,4.41,4.31,0,*41
1505106182.57,1485,14.81,73496.8,5.25,4.19,4.23,0,*4E
1505106183.75,1486,14.88,73500.0,5.25,4.11,4.07,0,*43
1505106184.95,1487,14.81,73494.0,5.23,4.07,4.05,0,*41
1505106186.13,1488,14.88,73494.0,5.25,4.11,4.07,0,*4D
1505106187.32,1489,14.88,73490.0,5.23,4.07,4.05,0,*4F
1505106188.5,1490,14.81,73492.0,5.23,4.15,4.07,0,*46
1505106189.67,1491,14.81,73482.3,5.23,4.07,4.15,0,*47
1505106190.84,1492,14.88,73490.3,5.23,4.15,4.15,0,*47
1505106192.03,1493,14.88,73484.8,5.23,4.31,4.27,0,*41
1505106193.21,1494,14.88,73470.5,5.23,4.37,4.37,0,*41
1505106194.39,1495,14.88,73464.5,5.23,4.37,4.37,0,*40
1505106195.57,1496,14.81,73474.8,5.23,4.37,4.41,0,*42
1505106196.74,1497,14.88,73478.0,5.23,4.41,4.37,0,*43
1505106197.9,1498,14.81,73486.5,5.23,4.27,4.19,0,*40
1505106199.07,1499,14.88,73486.5,5.23,4.19,4.19,0,*4C
1505106200.24,1500,14.88,73492.0,5.25,4.19,4.11,0,*43
1505106201.4,1501,14.88,73492.5,5.25,4.19,4.19,0,*4A
1505106202.6,1502,14.88,73490.0,5.25,4.31,4.19,0,*43
1505106203.8,1503,14.81,73476.8,5.25,4.23,4.31,0,*4B
1505106204.96,1504,14.81,73460.5,5.23,4.19,4.15,0,*45
1505106206.13,1505,14.88,73470.8,5.23,4.19,4.19,0,*48
1505106207.29,1506,14.88,73462.3,5.25,4.23,4.19,0,*44
1505106208.46,1507,14.81,73468.0,5.25,4.19,4.19,0,*4C
1505106209.65,1508,14.81,73454.3,5.23,4.31,4.19,0,*4F
1505106210.85,1509,14.88,73444.8,5.23,4.31,4.27,0,*43
1505106212.02,1510,14.81,73432.8,5.23,4.15,4.07,0,*4F
1505106213.19,1511,14.88,73448.0,5.25,4.07,4.15,0,*48
1505106214.36,1512,14.81,73450.3,5.23,4.27,4.19,0,*43
1505106215.53,1513,14.88,73448.8,5.29,4.23,4.15,0,*40
1505106216.75,1514,14.88,73444.8,5.23,4.05,4.05,0,*48
1505106217.93,1515,14.81,73440.3,5.23,4.15,4.07,0,*4A
1505106219.15,1516,14.81,73440.8,5.25,4.31,4.31,0,*4C
1505106220.35,1517,14.81,73426.8,5.23,4.07,4.05,0,*49
1505106221.53,1518,14.88,73446.3,5.23,4.07,4.07,0,*44
1505106222.78,1519,14.88,73456.5,5.21,4.05,4.05,0,*47
1505106223.99,1520,14.88,73450.5,5.23,3.97,3.97,0,*4F
1505106225.2,1521,14.81,73438.5,5.23,3.97,3.97,0,*4E
1505106226.37,1522,14.88,73444.0,5.23,4.27,4.19,0,*40
1505106227.54,1523,14.88,73452.5,5.23,4.37,4.27,0,*4D
1505106228.74,1524,14.81,73464.5,5.23,4.37,4.31,0,*4D
1505106229.91,1525,14.88,73448.5,5.23,3.93,3.85,0,*4D
1505106231.07,1526,14.88,73450.8,5.23,3.85,3.85,0,*49
1505106232.24,1527,14.88,73456.8,5.23,3.85,3.85,0,*48
1505106233.46,1528,14.88,73464.8,5.23,4.05,3.97,0,*4B
1505106234.71,1529,14.88,73460.3,5.21,4.05,4.05,0,*44
1505106235.89,1530,14.88,73464.5,5.21,4.19,4.27,0,*41
1505106237.06,1531,14.81,73462.8,5.19,4.27,4.27,0,*46
1505106238.29,1532,14.88,73472.8,5.21,4.31,4.37,0,*48
1505106239.51,1533,14.81,73472.3,5.21,4.31,4.41,0,*48
1505106240.76,1534,14.81,73478.5,5.21,4.31,4.31,0,*48
1505106241.99,1535,14.81,73490.8,5.21,4.31,4.37,0,*4F
1505106243.21,1536,14.88,73480.8,5.23,4.31,4.31,0,*48
1505106244.38,1537,14.88,73484.3,5.23,4.27,4.19,0,*44
1505106245.55,1538,14.81,73486.3,5.25,4.11,4.23,0,*41
1505106246.73,1539,14.81,73482.8,5.23,4.07,4.07,0,*47
1505106247.93,1540,14.81,73480.8,5.23,4.07,4.05,0,*4B
1505106249.1,1541,14.81,73458.5,5.23,4.07,4.07,0,*48
1505106250.34,1542,14.88,73458.0,5.21,3.97,4.05,0,*45
1505106251.58,1543,14.81,73444.0,5.21,3.97,3.97,0,*48
1505106252.78,1544,14.88,73428.0,5.21,3.93,3.93,0,*4F
1505106253.97,1545,14.81,73434.0,5.21,4.15,4.07,0,*4D
1505106255.17,1546,14.81,73440.8,5.21,4.15,4.15,0,*4D
1505106256.39,1547,14.81,73458.0,5.21,4.07,4.05,0,*4E
1505106257.58,1548,14.88,73460.8,5.21,4.19,4.27,0,*4E
1505106258.82,1549,14.81,73466.5,5.21,4.31,4.31,0,*42
1505106260.01,1550,14.81,73464.8,5.21,4.27,4.27,0,*4A
1505106261.2,1551,14.88,73470.8,5.21,4.19,4.27,0,*46
1505106262.42,1552,14.81,73470.0,5.21,4.31,4.27,0,*4F
1505106263.6,1553,14.81,73464.5,5.21,4.19,4.19,0,*49
1505106264.8,1554,14.81,73466.3,5.21,4.15,4.15,0,*4E
1505106266.02,1555,14.81,73466.0,5.21,4.27,4.31,0,*48
1505106267.27,1556,14.81,73466.8,5.21,4.31,4.31,0,*4C
1505106268.51,1557,14.81,73466.3,5.21,4.31,4.31,0,*4D
1505106269.68,1558,14.88,73472.3,5.23,4.23,4.15,0,*45
1505106270.85,1559,14.81,73476.0,5.23,4.15,4.15,0,*41
1505106272.02,1560,14.81,73478.3,5.23,4.27,4.27,0,*4B
1505106273.18,1561,14.81,73478.5,5.23,4.19,4.19,0,*4A
1505106274.36,1562,14.81,73476.5,5.23,4.37,4.37,0,*49
1505106275.58,1563,14.81,73484.0,5.21,4.27,4.31,0,*4D
1505106276.75,1564,14.88,73480.5,5.23,4.27,4.19,0,*42
1505106277.92,1565,14.88,73486.3,5.23,4.37,4.27,0,*4F
1505106279.08,1566,14.81,73492.3,5.23,4.19,4.15,0,*41
1505106280.25,1567,14.81,73510.3,5.23,4.19,4.19,0,*4C
1505106281.41,1568,14.81,73510.0,5.23,4.19,4.27,0,*4E
1505106282.57,1569,14.88,73524.0,5.23,4.19,4.27,0,*4F
1505106283.77,1570,14.81,73526.0,5.21,4.19,4.07,0,*47
1505106284.96,1571,14.81,73496.0,5.21,3.85,3.89,0,*45
1505106286.15,1572,14.81,73494.0,5.21,3.85,3.85,0,*4A
1505106287.35,1573,14.81,73478.8,5.21,3.93,3.93,0,*4B
1505106288.57,1574,14.81,73492.0,5.21,4.15,4.05,0,*4D
1505106289.74,1575,14.81,73490.0,5.19,4.33,4.27,0,*43
1505106290.94,1576,14.88,73496.0,5.21,4.37,4.37,0,*4E
1505106292.14,1577,14.81,73486.0,5.21,4.37,4.37,0,*4F
1505106293.32,1578,14.81,73478.0,5.19,4.33,4.33,0,*4B
1505106294.57,1579,14.88,73472.5,5.21,4.31,4.31,0,*41
1505106295.74,1580,14.81,73468.3,5.23,4.41,4.37,0,*44
1505106296.96,1581,14.81,73464.5,5.23,4.31,4.31,0,*44
1505106298.13,1582,14.81,73462.3,5.25,4.23,4.23,0,*41
1505106299.32,1583,14.81,73486.3,5.21,4.27,4.27,0,*44
1505106300.53,1584,14.81,73488.3,5.21,4.37,4.37,0,*43
1505106301.69,1585,14.81,73490.0,5.23,4.41,4.49,0,*48
1505106302.89,1586,14.88,73488.0,5.23,4.37,4.31,0,*45
1505106304.12,1587,14.81,73490.3,5.23,4.31,4.31,0,*42
1505106305.34,1588,14.81,73486.5,5.23,4.31,4.31,0,*4D
1505106306.51,1589,14.88,73484.5,5.23,4.19,4.19,0,*4C
1505106307.68,1590,14.88,73490.5,5.23,4.27,4.15,0,*45
1505106308.84,1591,14.81,73486.5,5.23,4.27,4.27,0,*45
1505106310.02,1592,14.81,73482.5,5.23,4.15,4.07,0,*45
1505106311.18,1593,14.81,73486.8,5.23,4.27,4.19,0,*4A
1505106312.35,1594,14.81,73492.0,5.23,4.27,4.27,0,*40
1505106313.54,1595,14.81,73492.5,5.23,4.31,4.27,0,*46
1505106314.71,1596,14.81,73488.3,5.23,4.41,4.37,0,*43
1505106315.91,1597,14.81,73480.0,5.23,4.41,4.31,0,*44
1505106317.09,1598,14.81,73488.0,5.23,4.37,4.37,0,*4C
1505106318.29,1599,14.88,73486.8,5.23,4.27,4.31,0,*4A
1505106319.49,1600,14.81,73496.0,5.23,4.07,4.05,0,*4C
1505106320.68,1601,14.81,73500.3,5.23,3.97,3.93,0,*4B
1505106321.86,1602,14.81,73494.8,5.19,4.15,4.07,0,*46
1505106323.08,1603,14.81,73498.0,5.21,4.07,4.05,0,*4D
1505106324.24,1604,14.88,73484.8,5.23,4.15,4.19,0,*46
1505106325.41,1605,14.81,73480.8,5.23,4.27,4.19,0,*46
1505106326.64,1606,14.81,73470.0,5.23,4.31,4.31,0,*48
1505106327.86,1607,14.81,73478.5,5.23,4.31,4.31,0,*49
1505106329.06,1608,14.81,73488.3,5.23,4.37,4.31,0,*40
1505106330.23,1609,14.81,73494.0,5.23,4.27,4.15,0,*46
1505106331.4,1610,14.81,73478.8,5.23,4.15,4.15,0,*4F
1505106332.57,1611,14.81,73458.3,5.23,4.27,4.27,0,*4E
1505106333.74,1612,14.81,73462.8,5.23,4.41,4.37,0,*4C
1505106334.93,1613,14.81,73460.0,5.23,4.31,4.27,0,*4B
1505106336.11,1614,14.81,73452.3,5.23,4.15,4.07,0,*48
1505106337.28,1615,14.81,73448.5,5.23,4.15,4.15,0,*4A
1505106338.44,1616,14.81,73444.3,5.23,4.27,4.27,0,*49
1505106339.63,1617,14.81,73456.5,5.23,4.31,4.27,0,*4F
1505106340.82,1618,14.81,73464.0,5.21,4.19,4.19,0,*45
1505106341.99,1619,14.88,73460.5,5.23,4.27,4.27,0,*46
1505106343.15,1620,14.81,73432.8,5.23,4.19,4.15,0,*40
1505106344.37,1621,14.81,73446.0,5.23,3.97,3.97,0,*4D
1505106345.56,1622,14.81,73446.0,5.21,4.15,4.15,0,*4C
1505106346.75,1623,14.81,73470.3,5.21,4.19,4.19,0,*4D
1505106347.94,1624,14.81,73454.3,5.21,4.27,4.27,0,*4A
1505106349.16,1625,14.81,73428.5,5.21,4.31,4.27,0,*4C
1505106350.36,1626,14.88,73424.3,5.21,4.37,4.37,0,*48
1505106351.57,1627,14.88,73444.8,5.21,4.31,4.19,0,*43
1505106352.76,1628,14.81,73446.3,5.21,4.27,4.15,0,*47
1505106353.96,1629,14.88,73462.0,5.23,4.27,4.31,0,*42
1505106355.14,1630,14.88,73460.5,5.23,4.37,4.37,0,*4D
1505106356.39,1631,14.81,73466.5,5.21,4.31,4.31,0,*4E
1505106357.58,1632,14.81,73468.8,5.21,4.19,4.19,0,*4D
1505106358.77,1633,14.81,73454.5,5.21,4.15,4.07,0,*4F
1505106359.97,1634,14.88,73458.8,5.23,4.07,4.05,0,*4B
1505106361.14,1635,14.81,73452.3,5.23,4.27,4.19,0,*45
1505106362.3,1636,14.88,73448.8,5.23,4.27,4.27,0,*4B
1505106363.5,1637,14.81,73466.5,5.23,4.41,4.31,0,*4D
1505106364.7,1638,14.88,73462.3,5.23,4.37,4.31,0,*43
1505106365.87,1639,14.81,73478.3,5.23,4.07,4.07,0,*44
1505106367.04,1640,14.81,73462.3,5.23,4.27,4.15,0,*4B
1505106368.22,1641,14.88,73450.3,5.23,4.27,4.37,0,*4A
1505106369.42,1642,14.88,73450.5,5.23,4.27,4.31,0,*4F
1505106370.61,1643,14.81,73454.0,5.23,4.31,4.27,0,*4E
1505106371.81,1644,14.88,73460.5,5.23,4.27,4.31,0,*49
1505106372.98,1645,14.81,73464.5,5.23,4.37,4.27,0,*4E
1505106374.15,1646,14.81,73464.3,5.23,4.27,4.19,0,*41
1505106375.31,1647,14.81,73462.3,5.23,4.27,4.15,0,*4C
1505106376.48,1648,14.88,73470.5,5.23,4.27,4.27,0,*42
1505106377.73,1649,14.81,73470.8,5.21,4.31,4.31,0,*41
1505106378.89,1650,14.81,73472.5,5.23,4.19,4.19,0,*4B
1505106380.08,1651,14.81,73472.5,5.21,4.19,4.15,0,*44
1505106381.28,1652,14.81,73476.8,5.21,4.19,4.07,0,*44
1505106382.49,1653,14.81,73454.3,5.21,3.97,3.93,0,*4E
1505106383.7,1654,14.81,73442.5,5.21,3.97,3.85,0,*4E
1505106384.93,1655,14.88,73466.8,5.21,4.15,4.05,0,*4D
1505106386.17,1656,14.81,73470.5,5.21,4.05,4.05,0,*4F
1505106387.39,1657,14.88,73470.8,5.21,4.07,3.97,0,*40
1505106388.59,1658,14.88,73452.8,5.23,4.07,3.97,0,*4D
1505106389.76,1659,14.81,73452.0,5.23,4.07,4.07,0,*42
1505106390.95,1660,14.81,73454.8,5.21,4.15,4.15,0,*4A
1505106392.18,1661,14.81,73452.3,5.21,4.05,4.07,0,*49
1505106393.4,1662,14.88,73464.3,5.21,4.15,4.05,0,*49
1505106394.57,1663,14.81,73468.0,5.19,4.11,4.11,0,*42
1505106395.76,1664,14.88,73466.3,5.21,4.27,4.27,0,*4E
1505106396.95,1665,14.81,73460.5,5.21,4.27,4.19,0,*42
1505106398.13,1666,14.81,73460.0,5.21,4.19,4.27,0,*41
1505106399.38,1667,14.81,73454.3,5.21,4.05,3.97,0,*41
1505106400.6,1668,14.88,73466.5,5.21,4.07,4.05,0,*40
1505106401.77,1669,14.81,73470.3,5.19,4.19,4.15,0,*44
1505106402.97,1670,14.81,73474.5,5.19,4.11,4.05,0,*45
1505106404.14,1671,14.88,73472.5,5.19,4.19,4.27,0,*4C
1505106405.36,1672,14.88,73490.8,5.21,4.07,4.05,0,*4B
1505106406.58,1673,14.88,73494.0,5.19,4.01,4.01,0,*43
1505106407.75,1674,14.81,73478.0,5.19,4.15,4.11,0,*40
1505106408.96,1675,14.88,73480.3,5.21,4.31,4.27,0,*49
1505106410.17,1676,14.81,73468.3,5.21,4.37,4.37,0,*4D
1505106411.39,1677,14.81,73466.3,5.21,4.37,4.31,0,*4A
1505106412.59,1678,14.88,73486.5,5.21,4.41,4.37,0,*42
1505106413.78,1679,14.88,73490.0,5.21,4.41,4.37,0,*43
1505106414.97,1680,14.88,73492.3,5.21,4.49,4.41,0,*4C
1505106416.17,1681,14.88,73484.3,5.21,4.41,4.41,0,*45
1505106417.36,1682,14.81,73468.3,5.21,4.37,4.27,0,*47
1505106418.58,1683,14.81,73460.8,5.21,4.31,4.27,0,*40
1505106419.77,1684,14.88,73464.0,5.21,4.07,4.07,0,*40
1505106420.97,1685,14.88,73480.0,5.21,4.15,4.15,0,*41
1505106422.19,1686,14.81,73476.3,5.21,4.07,4.05,0,*40
1505106423.38,1687,14.81,73484.3,5.21,4.19,4.15,0,*4F
1505106424.58,1688,14.88,73480.0,5.21,4.07,4.07,0,*4C
1505106425.77,1689,14.88,73480.3,5.21,4.27,4.27,0,*4D
1505106426.96,1690,14.81,73476.0,5.23,4.31,4.27,0,*40
1505106428.13,1691,14.88,73472.3,5.25,4.23,4.23,0,*40
1505106429.3,1692,14.81,73476.5,5.19,4.15,4.11,0,*48
1505106430.52,1693,14.81,73478.0,5.21,4.07,4.05,0,*44
1505106431.74,1694,14.88,73476.5,5.21,4.07,4.05,0,*43
1505106432.97,1695,14.88,73486.3,5.21,4.15,4.05,0,*41
1505106434.17,1696,14.88,73480.3,5.19,4.11,4.05,0,*4D
1505106435.33,1697,14.81,73490.3,5.19,4.33,4.27,0,*4C
1505106436.53,1698,14.88,73472.3,5.23,4.49,4.31,0,*40
1505106437.75,1699,14.81,73486.0,5.21,4.37,4.31,0,*4A
1505106438.92,1700,14.88,73484.3,5.19,4.23,4.15,0,*43
1505106440.11,1701,14.88,73480.3,5.21,4.27,4.19,0,*41
1505106441.28,1702,14.88,73474.0,5.23,4.27,4.19,0,*40
1505106442.47,1703,14.88,73470.0,5.21,4.19,4.15,0,*42
1505106443.66,1704,14.88,73474.5,5.21,4.27,4.27,0,*49
1505106444.88,1705,14.88,73480.8,5.21,4.31,4.37,0,*4E
1505106446.08,1706,14.88,73476.3,5.19,4.15,4.05,0,*41
1505106447.33,1707,14.81,73468.5,5.21,4.31,4.31,0,*4A
1505106448.5,1708,14.81,73464.3,5.23,4.19,4.15,0,*4B
1505106449.67,1709,14.88,73474.5,5.23,4.15,4.15,0,*46
1505106450.85,1710,14.88,73474.5,5.21,4.19,4.19,0,*4C
1505106452.03,1711,14.81,73468.5,5.19,4.07,4.07,0,*46
1505106453.23,1712,14.88,73468.5,5.21,4.15,4.07,0,*4D
1505106454.42,1713,14.81,73466.0,5.21,4.27,4.19,0,*42
1505106455.59,1714,14.88,73474.0,5.19,4.23,4.15,0,*46
1505106456.77,1715,14.81,73464.5,5.21,4.19,4.19,0,*49
1505106457.96,1716,14.81,73464.0,5.21,4.15,4.15,0,*4A
1505106459.14,1717,14.88,73476.8,5.19,4.19,4.15,0,*4C
1505106460.3,1718,14.88,73474.8,5.23,4.19,4.15,0,*4A
1505106461.47,1719,14.88,73482.3,5.23,4.27,4.19,0,*4A
1505106462.66,1720,14.88,73478.3,5.21,4.27,4.19,0,*42
1505106463.85,1721,14.88,73482.0,5.21,4.19,4.15,0,*42
1505106465.04,1722,14.88,73496.3,5.21,4.37,4.27,0,*4C
1505106466.25,1723,14.81,73480.8,5.21,4.31,4.27,0,*4B
1505106467.44,1724,14.88,73476.3,5.21,4.27,4.19,0,*46
1505106468.61,1725,14.88,73472.5,5.23,4.19,4.19,0,*48
1505106469.77,1726,14.88,73470.8,5.23,4.19,4.15,0,*47
1505106470.95,1727,14.88,73460.5,5.23,4.15,4.07,0,*49
1505106472.17,1728,14.88,73466.3,5.19,4.05,4.05,0,*4C
1505106473.37,1729,14.88,73472.8,5.21,4.15,4.07,0,*45
1505106474.59,1730,14.88,73474.0,5.21,4.07,4.05,0,*4C
1505106475.78,1731,14.88,73482.0,5.21,4.15,4.19,0,*43
1505106476.95,1732,14.88,73480.8,5.23,4.37,4.27,0,*4F
1505106478.17,1733,14.88,73484.3,5.21,4.27,4.31,0,*4A
1505106479.37,1734,14.81,73480.8,5.21,4.37,4.37,0,*4A
1505106480.56,1735,14.88,73478.3,5.21,4.19,4.19,0,*4B
1505106481.8,1736,14.88,73470.3,5.21,3.97,3.97,0,*48
1505106483.02,1737,14.88,73472.8,5.21,3.97,3.93,0,*4D
1505106484.21,1738,14.88,73470.0,5.21,4.27,4.19,0,*4B
1505106485.41,1739,14.88,73492.8,5.21,4.37,4.37,0,*47
1505106486.63,1740,14.88,73486.5,5.21,4.41,4.31,0,*4E
1505106487.85,1741,14.81,73466.8,5.21,4.37,4.31,0,*4E
1505106489.07,1742,14.88,73470.5,5.21,4.41,4.31,0,*4C
1505106490.29,1743,14.88,73472.5,5.21,4.31,4.27,0,*4D
1505106491.49,1744,14.88,73468.3,5.21,4.37,4.37,0,*4D
1505106492.71,1745,14.88,73466.8,5.21,4.37,4.31,0,*4A
1505106493.9,1746,14.81,73466.0,5.21,4.49,4.37,0,*46
1505106495.15,1747,14.88,73470.8,5.21,4.31,4.31,0,*4E
1505106496.38,1748,14.88,73466.5,5.21,4.37,4.31,0,*47
1505106497.55,1749,14.88,73460.0,5.23,4.15,4.07,0,*41
1505106498.75,1750,14.81,73454.5,5.23,4.07,4.05,0,*48
1505106499.94,1751,14.88,73462.3,5.21,4.15,4.15,0,*49
1505106501.14,1752,14.88,73460.5,5.21,4.15,4.07,0,*49
1505106502.33,1753,14.88,73464.5,5.21,4.19,4.07,0,*44
1505106503.55,1754,14.88,73460.0,5.21,4.31,4.19,0,*46
1505106504.74,1755,14.81,73460.5,5.21,4.37,4.27,0,*4C
1505106505.96,1756,14.88,73460.5,5.21,4.31,4.27,0,*49
1505106507.2,1757,14.81,73442.0,5.21,4.31,4.31,0,*4F
1505106508.37,1758,14.88,73444.5,5.23,4.27,4.19,0,*4F
1505106509.57,1759,14.88,73444.8,5.25,4.31,4.23,0,*46
1505106510.77,1760,14.88,73442.5,5.23,4.07,4.05,0,*4B
1505106511.99,1761,14.88,73436.3,5.21,4.07,4.05,0,*48
1505106513.21,1762,14.88,73436.3,5.21,4.07,3.97,0,*47
1505106514.37,1763,14.88,73444.8,5.23,4.27,4.27,0,*4A
1505106515.55,1764,14.88,73442.8,5.23,4.37,4.37,0,*4D
1505106516.73,1765,14.88,73444.5,5.23,4.37,4.37,0,*4C
1505106517.9,1766,14.88,73444.0,5.23,4.19,4.15,0,*43
1505106519.07,1767,14.88,73452.0,5.23,4.15,4.15,0,*4E
1505106520.24,1768,14.88,73462.0,5.23,4.27,4.07,0,*43
1505106521.46,1769,14.88,73460.5,5.21,4.37,4.31,0,*44
1505106522.69,1770,14.88,73452.8,5.21,4.37,4.31,0,*4C
1505106523.89,1771,14.88,73442.3,5.21,4.41,4.37,0,*4A
1505106525.13,1772,14.88,73444.5,5.21,4.31,4.31,0,*48
1505106526.35,1773,14.88,73462.3,5.21,4.41,4.31,0,*4E
1505106527.52,1774,14.88,73456.5,5.23,4.41,4.41,0,*4C
1505106528.7,1775,14.81,73460.8,5.23,4.41,4.37,0,*4C
1505106529.87,1776,14.88,73460.0,5.23,4.15,4.07,0,*4D